Time,TemperatureF,DewpointF,PressureIn,WindDirection,WindDirectionDegrees,WindSpeedMPH,WindSpeedGustMPH,Humidity,HourlyPrecipIn,Conditions,Clouds,dailyrainin,SoftwareType,DateUTC
2013-08-07 00:10:00,72.7,69.6,29.95,ESE,112,1.1,-999.0,90,-99.99,,,0.00,Acu-Link.com,2013-08-07 04:10:00,
2013-08-07 00:25:00,72.5,69.4,29.97,West,270,1.1,-999.0,90,-99.99,,,0.00,Acu-Link.com,2013-08-07 04:25:00,
2013-08-07 00:41:00,72.3,69.5,29.97,SSE,157,0.0,-999.0,91,-99.99,,,0.00,Acu-Link.com,2013-08-07 04:41:00,
2013-08-07 00:56:00,72.1,70.0,29.97,ENE,67,0.0,-999.0,93,-99.99,,,0.00,Acu-Link.com,2013-08-07 04:56:00,
2013-08-07 01:11:00,71.6,69.8,29.96,West,270,0.0,-999.0,94,-99.99,,,0.00,Acu-Link.com,2013-08-07 05:11:00,
2013-08-07 01:26:00,71.1,69.9,29.96,WSW,247,0.0,-999.0,96,-99.99,,,0.00,Acu-Link.com,2013-08-07 05:26:00,
2013-08-07 01:42:00,70.9,69.7,29.96,NNE,22,0.0,-999.0,96,-99.99,,,0.00,Acu-Link.com,2013-08-07 05:42:00,
2013-08-07 01:57:00,70.5,69.6,29.96,NNW,337,0.0,-999.0,97,-99.99,,,0.00,Acu-Link.com,2013-08-07 05:57:00,
2013-08-07 02:12:00,70.5,69.3,29.95,ESE,112,2.2,-999.0,96,-99.99,,,0.00,Acu-Link.com,2013-08-07 06:12:00,
2013-08-07 02:28:00,70.5,69.0,29.95,WNW,292,1.1,-999.0,95,-99.99,,,0.00,Acu-Link.com,2013-08-07 06:28:00,
2013-08-07 02:43:00,70.7,69.2,29.95,WNW,292,0.0,-999.0,95,-99.99,,,0.00,Acu-Link.com,2013-08-07 06:43:00,
2013-08-07 02:58:00,70.7,69.2,29.95,ESE,112,0.0,-999.0,95,-99.99,,,0.00,Acu-Link.com,2013-08-07 06:58:00,
2013-08-07 03:14:00,70.5,69.0,29.94,ESE,112,0.0,-999.0,95,-99.99,,,0.00,Acu-Link.com,2013-08-07 07:14:00,
2013-08-07 03:29:00,70.3,69.1,29.95,NNW,337,0.0,-999.0,96,-99.99,,,0.00,Acu-Link.com,2013-08-07 07:29:00,
2013-08-07 03:44:00,70.2,69.3,29.95,East,90,0.0,-999.0,97,-99.99,,,0.00,Acu-Link.com,2013-08-07 07:44:00,
2013-08-07 03:59:00,70.0,69.1,29.94,SE,135,0.0,-999.0,97,-99.99,,,0.00,Acu-Link.com,2013-08-07 07:59:00,
2013-08-07 04:15:00,70.0,69.1,29.95,NE,45,0.0,-999.0,97,-99.99,,,0.00,Acu-Link.com,2013-08-07 08:15:00,
2013-08-07 04:30:00,70.0,69.1,29.95,West,270,0.0,-999.0,97,-99.99,,,0.00,Acu-Link.com,2013-08-07 08:30:00,
2013-08-07 04:45:00,70.0,69.1,29.94,East,90,1.1,-999.0,97,-99.99,,,0.00,Acu-Link.com,2013-08-07 08:45:00,
2013-08-07 05:01:00,70.2,69.3,29.94,West,270,1.1,-999.0,97,-99.99,,,0.00,Acu-Link.com,2013-08-07 09:01:00,
2013-08-07 05:16:00,70.2,69.3,29.95,WNW,292,1.7,-999.0,97,-99.99,,,0.00,Acu-Link.com,2013-08-07 09:16:00,
2013-08-07 05:31:00,70.0,68.8,29.95,South,180,0.0,-999.0,96,-99.99,,,0.00,Acu-Link.com,2013-08-07 09:31:00,
2013-08-07 05:46:00,70.0,68.8,29.94,North,0,0.0,-999.0,96,-99.99,,,0.00,Acu-Link.com,2013-08-07 09:46:00,
2013-08-07 06:02:00,70.0,68.8,29.94,NW,315,1.1,-999.0,96,-99.99,,,0.00,Acu-Link.com,2013-08-07 10:02:00,
2013-08-07 06:17:00,70.0,68.8,29.94,NW,315,0.0,-999.0,96,-99.99,,,0.00,Acu-Link.com,2013-08-07 10:17:00,
2013-08-07 06:32:00,70.0,68.5,29.96,NW,315,0.0,-999.0,95,-99.99,,,0.00,Acu-Link.com,2013-08-07 10:32:00,
2013-08-07 06:47:00,70.2,68.7,29.95,ENE,67,0.0,-999.0,95,-99.99,,,0.00,Acu-Link.com,2013-08-07 10:47:00,
2013-08-07 07:03:00,70.2,68.7,29.95,SW,225,0.0,-999.0,95,-99.99,,,0.00,Acu-Link.com,2013-08-07 11:03:00,
2013-08-07 07:18:00,70.2,68.7,29.96,NW,315,0.0,-999.0,95,-99.99,,,0.00,Acu-Link.com,2013-08-07 11:18:00,
2013-08-07 07:33:00,70.2,69.0,29.97,NNE,22,1.1,-999.0,96,-99.99,,,0.00,Acu-Link.com,2013-08-07 11:33:00,
2013-08-07 07:49:00,70.2,69.0,29.97,ESE,112,0.0,-999.0,96,-99.99,,,0.00,Acu-Link.com,2013-08-07 11:49:00,
2013-08-07 08:04:00,70.3,69.1,29.98,East,90,0.0,-999.0,96,-99.99,,,0.00,Acu-Link.com,2013-08-07 12:04:00,
2013-08-07 08:19:00,70.3,69.1,29.97,NNW,337,2.2,-999.0,96,-99.99,,,0.00,Acu-Link.com,2013-08-07 12:19:00,
2013-08-07 08:35:00,70.9,69.4,29.98,West,270,0.0,-999.0,95,-99.99,,,0.00,Acu-Link.com,2013-08-07 12:35:00,
2013-08-07 08:50:00,71.2,69.7,29.98,East,90,0.0,-999.0,95,-99.99,,,0.00,Acu-Link.com,2013-08-07 12:50:00,
2013-08-07 09:05:00,71.8,69.7,29.98,WNW,292,0.0,-999.0,93,-99.99,,,0.00,Acu-Link.com,2013-08-07 13:05:00,
2013-08-07 09:20:00,72.5,70.0,29.98,WSW,247,0.0,-999.0,92,-99.99,,,0.00,Acu-Link.com,2013-08-07 13:20:00,
2013-08-07 09:35:00,73.0,70.2,29.98,ESE,112,0.0,-999.0,91,-99.99,,,0.00,Acu-Link.com,2013-08-07 13:35:00,
2013-08-07 09:51:00,73.9,70.4,29.99,SW,225,0.0,-999.0,89,-99.99,,,0.00,Acu-Link.com,2013-08-07 13:51:00,
2013-08-07 10:06:00,74.7,70.6,29.98,SW,225,0.0,-999.0,87,-99.99,,,0.00,Acu-Link.com,2013-08-07 14:06:00,
2013-08-07 10:21:00,75.6,71.1,29.99,South,180,0.0,-999.0,86,-99.99,,,0.00,Acu-Link.com,2013-08-07 14:21:00,
2013-08-07 10:37:00,76.3,70.7,30.00,ESE,112,0.0,-999.0,83,-99.99,,,0.00,Acu-Link.com,2013-08-07 14:37:00,
2013-08-07 10:52:00,77.0,71.1,30.00,NE,45,0.0,-999.0,82,-99.99,,,0.00,Acu-Link.com,2013-08-07 14:52:00,
2013-08-07 11:07:00,76.6,71.0,29.99,WNW,292,0.0,-999.0,83,-99.99,,,0.00,Acu-Link.com,2013-08-07 15:07:00,
2013-08-07 11:23:00,76.5,71.6,29.99,NNE,22,0.0,-999.0,85,-99.99,,,0.00,Acu-Link.com,2013-08-07 15:23:00,
2013-08-07 11:38:00,75.0,71.9,29.99,ENE,67,1.1,-999.0,90,-99.99,,,0.00,Acu-Link.com,2013-08-07 15:38:00,
2013-08-07 11:53:00,77.7,72.1,29.99,ENE,67,0.0,-999.0,83,-99.99,,,0.00,Acu-Link.com,2013-08-07 15:53:00,
2013-08-07 12:08:00,77.4,71.8,29.99,SE,135,0.0,-999.0,83,-99.99,,,0.00,Acu-Link.com,2013-08-07 16:08:00,
2013-08-07 12:23:00,78.1,71.4,29.99,NNE,22,0.0,-999.0,80,-99.99,,,0.00,Acu-Link.com,2013-08-07 16:23:00,
2013-08-07 12:39:00,81.3,72.2,29.98,SSE,157,0.0,-999.0,74,-99.99,,,0.00,Acu-Link.com,2013-08-07 16:39:00,
2013-08-07 12:54:00,81.3,71.8,29.99,West,270,0.0,-999.0,73,-99.99,,,0.00,Acu-Link.com,2013-08-07 16:54:00,
2013-08-07 13:09:00,81.3,72.6,29.98,South,180,0.0,-999.0,75,-99.99,,,0.00,Acu-Link.com,2013-08-07 17:09:00,
2013-08-07 13:25:00,78.3,73.1,29.98,SW,225,1.7,-999.0,84,-99.99,,,0.01,Acu-Link.com,2013-08-07 17:25:00,
2013-08-07 13:40:00,76.5,72.7,29.98,SE,135,0.0,-999.0,88,-99.99,,,0.17,Acu-Link.com,2013-08-07 17:40:00,
2013-08-07 13:55:00,75.9,73.1,29.98,SSE,157,0.0,-999.0,91,-99.99,,,0.19,Acu-Link.com,2013-08-07 17:55:00,
2013-08-07 14:11:00,76.6,73.8,29.98,ESE,112,1.7,-999.0,91,-99.99,,,0.19,Acu-Link.com,2013-08-07 18:11:00,
2013-08-07 14:26:00,75.6,72.8,29.98,SSE,157,0.0,-999.0,91,-99.99,,,0.19,Acu-Link.com,2013-08-07 18:26:00,
2013-08-07 14:41:00,73.9,71.4,29.98,WNW,292,3.2,-999.0,92,-99.99,,,0.20,Acu-Link.com,2013-08-07 18:41:00,
2013-08-07 14:56:00,73.2,71.7,29.97,NNE,22,2.2,-999.0,95,-99.99,,,0.22,Acu-Link.com,2013-08-07 18:56:00,
2013-08-07 15:12:00,72.9,71.4,29.97,NE,45,3.2,-999.0,95,-99.99,,,0.22,Acu-Link.com,2013-08-07 19:12:00,
2013-08-07 15:27:00,74.1,71.9,29.96,ESE,112,1.7,-999.0,93,-99.99,,,0.22,Acu-Link.com,2013-08-07 19:27:00,
2013-08-07 15:43:00,74.1,72.3,29.96,NE,45,2.2,-999.0,94,-99.99,,,0.22,Acu-Link.com,2013-08-07 19:43:00,
2013-08-07 15:59:00,74.7,71.9,29.96,West,270,1.1,-999.0,91,-99.99,,,0.22,Acu-Link.com,2013-08-07 19:59:00,
2013-08-07 16:14:00,75.4,71.6,29.95,WNW,292,2.7,-999.0,88,-99.99,,,0.22,Acu-Link.com,2013-08-07 20:14:00,
2013-08-07 16:29:00,73.9,71.1,29.95,NNE,22,2.2,-999.0,91,-99.99,,,0.22,Acu-Link.com,2013-08-07 20:29:00,
2013-08-07 16:44:00,72.9,70.8,29.96,WNW,292,1.7,-999.0,93,-99.99,,,0.31,Acu-Link.com,2013-08-07 20:44:00,
2013-08-07 17:00:00,71.2,70.3,29.96,NE,45,2.7,-999.0,97,-99.99,,,0.82,Acu-Link.com,2013-08-07 21:00:00,
2013-08-07 17:15:00,70.5,70.2,29.95,ENE,67,2.2,-999.0,99,-99.99,,,1.37,Acu-Link.com,2013-08-07 21:15:00,
2013-08-07 17:30:00,70.9,70.6,29.95,NE,45,2.2,-999.0,99,-99.99,,,1.44,Acu-Link.com,2013-08-07 21:30:00,
2013-08-07 17:46:00,71.8,71.5,29.95,NW,315,1.7,-999.0,99,-99.99,,,1.46,Acu-Link.com,2013-08-07 21:46:00,
2013-08-07 18:01:00,72.0,71.7,29.95,SW,225,0.0,-999.0,99,-99.99,,,1.46,Acu-Link.com,2013-08-07 22:01:00,
2013-08-07 18:16:00,72.3,72.0,29.95,South,180,0.0,-999.0,99,-99.99,,,1.46,Acu-Link.com,2013-08-07 22:16:00,
2013-08-07 18:31:00,72.9,72.3,29.94,West,270,1.1,-999.0,98,-99.99,,,1.46,Acu-Link.com,2013-08-07 22:31:00,
2013-08-07 18:47:00,72.9,71.7,29.94,WNW,292,3.7,-999.0,96,-99.99,,,1.46,Acu-Link.com,2013-08-07 22:47:00,
2013-08-07 19:04:00,72.3,71.1,29.94,WNW,292,1.7,-999.0,96,-99.99,,,1.46,Acu-Link.com,2013-08-07 23:04:00,
2013-08-07 19:23:00,72.0,71.1,29.95,West,270,0.0,-999.0,97,-99.99,,,1.46,Acu-Link.com,2013-08-07 23:23:00,
2013-08-07 19:54:00,71.1,70.5,29.94,WNW,292,2.7,-999.0,98,-99.99,,,1.46,Acu-Link.com,2013-08-07 23:54:00,
2013-08-07 20:19:00,71.2,70.3,29.94,West,270,1.1,-999.0,97,-99.99,,,1.46,Acu-Link.com,2013-08-08 00:19:00,
2013-08-07 21:09:00,70.3,70.0,29.94,NW,315,1.7,-999.0,99,-99.99,,,1.46,Acu-Link.com,2013-08-08 01:09:00,
2013-08-07 22:16:00,70.2,69.9,29.97,SE,135,0.0,-999.0,99,-99.99,,,1.46,Acu-Link.com,2013-08-08 02:16:00,
2013-08-07 22:34:00,70.2,69.9,29.98,SE,135,0.0,-999.0,99,-99.99,,,1.46,Acu-Link.com,2013-08-08 02:34:00,
2013-08-07 22:51:00,69.8,69.5,29.98,East,90,1.1,-999.0,99,-99.99,,,1.46,Acu-Link.com,2013-08-08 02:51:00,
2013-08-07 23:11:00,69.6,69.3,29.98,ESE,112,1.1,-999.0,99,-99.99,,,1.46,Acu-Link.com,2013-08-08 03:11:00,
2013-08-07 23:32:00,69.6,69.3,29.98,SSE,157,1.7,-999.0,99,-99.99,,,1.46,Acu-Link.com,2013-08-08 03:32:00,
2013-08-07 23:47:00,69.4,69.1,29.99,SW,225,2.2,-999.0,99,-99.99,,,1.46,Acu-Link.com,2013-08-08 03:47:00,